This is the latest recevied weather packets stored in our database for station/object WA1OUI. If no packets are shown the sender has not sent any weather packets the latest 10 day(s).
| Time | Temp. | Humidity | Pressure | Rain* | Wind** | Luminosity | Snow |
|---|---|---|---|---|---|---|---|
| 1777668513 | 17.78° C | 32% | 1007.7 hPa | 0 mm | - | 134 W/m² | - |
| 1777668209 | 17.78° C | 32% | 1007.5 hPa | 0 mm | - | 207 W/m² | - |
| 1777667906 | 18.33° C | 29% | 1007.6 hPa | 0 mm | - | 49 W/m² | - |
| 1777667603 | 18.33° C | 31% | 1007.7 hPa | 0 mm | - | 346 W/m² | - |
| 1777667300 | 18.33° C | 29% | 1007.9 hPa | 0 mm | - | 443 W/m² | - |
| 1777666997 | 17.78° C | 31% | 1007.8 hPa | 0 mm | - | 360 W/m² | - |
| 1777666694 | 17.78° C | 30% | 1007.7 hPa | 0 mm | - | 450 W/m² | - |
| 1777666391 | 17.78° C | 30% | 1007.6 hPa | 0 mm | - | 478 W/m² | - |
| 1777666087 | 17.22° C | 32% | 1007.7 hPa | 0 mm | - | 494 W/m² | - |
| 1777665784 | 17.78° C | 30% | 1007.8 hPa | 0 mm | - | 309 W/m² | - |
| 1777665482 | 18.89° C | 31% | 1007.8 hPa | 0 mm | - | 95 W/m² | - |
| 1777665177 | 18.33° C | 32% | 1007.9 hPa | 0 mm | - | 548 W/m² | - |
| 1777664874 | 18.33° C | 29% | 1008 hPa | 0 mm | - | 549 W/m² | - |
| 1777664570 | 18.33° C | 30% | 1007.9 hPa | 0 mm | - | 562 W/m² | - |
| 1777664266 | 17.78° C | 31% | 1007.6 hPa | 0 mm | - | 622 W/m² | - |
| 1777663965 | 17.78° C | 31% | 1007.9 hPa | 0 mm | - | 243 W/m² | - |
| 1777663662 | 18.33° C | 28% | 1007.9 hPa | 0 mm | - | 576 W/m² | - |
| 1777663358 | 17.78° C | 29% | 1007.9 hPa | 0 mm | - | 561 W/m² | - |
| 1777663056 | 18.33° C | 28% | 1008 hPa | 0 mm | - | 571 W/m² | - |
| 1777662753 | 18.33° C | 30% | 1008.1 hPa | 0 mm | - | 581 W/m² | - |
| 1777662449 | 18.33° C | 29% | 1008 hPa | 0 mm | - | 623 W/m² | - |
| 1777662145 | 18.33° C | 32% | 1008.2 hPa | 0 mm | - | 610 W/m² | - |
| 1777661841 | 17.78° C | 29% | 1008.4 hPa | 0 mm | - | 629 W/m² | - |
| 1777661537 | 17.78° C | 30% | 1008.5 hPa | 0 mm | - | 649 W/m² | - |
| 1777661234 | 18.33° C | 29% | 1008.5 hPa | 0 mm | - | 677 W/m² | - |
* Rain latest hour (hover to see other rain measurements)
** Current wind speed in m/s (hover to see current wind gust speed)